North Pole, Alaska, United States (99705)
Lat: 64.75N, Lon: 147.35W
Wx Zone: AKZ222
Local Info
Past Weather Observations for Thursday, April 10, 2014

NOTE: This archive is for the closest National Weather Service station to North Pole. Information may differ from the station used for current weather conditions.

Time Weather Temperature Dewpoint Humidity Pressure Winds Precip Visibility
23:55
Clear
3°F / -16°C -4°F / -20°C 72% 30.04 in
(1017 mb)
Calm - 10SM
22:55
Clear
9°F / -13°C °F / -18°C 66% 30.04 in
(1017 mb)
Calm - 10SM
21:55
Clear
9°F / -13°C -2°F / -19°C 61% 30.01 in
(1016 mb)
Calm - 10SM
20:55
Clear
10°F / -12°C -2°F / -19°C 56% 30.01 in
(1016 mb)
Calm - 25SM
19:55
Clear
18°F / -8°C °F / -18°C 45% 30.01 in
(1016 mb)
WNW 3.5 mph
(WNW 6 kph)
- 25SM
18:55
Clear
19°F / -7°C 1°F / -17°C 45% 30.01 in
(1016 mb)
SSW 4.6 mph
(SSW 7 kph)
- 25SM
17:55
Partly Cloudy
25°F / -4°C 1°F / -17°C 36% 30.01 in
(1016 mb)
SSW 5.8 mph
(SSW 9 kph)
- 25SM
16:55
Partly Cloudy
21°F / -6°C 7°F / -14°C 54% 30.01 in
(1016 mb)
W 6.9 mph
(W 11 kph)
- 25SM
15:55
Partly Cloudy
25°F / -4°C 1°F / -17°C 36% 30.01 in
(1016 mb)
SW 4.6 mph
(SW 7 kph)
- 25SM
14:55
Partly Cloudy
25°F / -4°C 1°F / -17°C 36% 30.04 in
(1017 mb)
SSW 4.6 mph
(SSW 7 kph)
- 25SM
13:55
Partly Cloudy
25°F / -4°C 1°F / -17°C 36% 30.04 in
(1017 mb)
SSE 3.5 mph
(SSE 6 kph)
- 25SM
12:55
Partly Cloudy
23°F / -5°C 1°F / -17°C 39% 30.04 in
(1017 mb)
NE 5.8 mph
(NE 9 kph)
- 25SM
11:55
Clear
19°F / -7°C °F / -18°C 42% 30.06 in
(1018 mb)
ENE 3.5 mph
(ENE 6 kph)
- 25SM
10:55
Clear
12°F / -11°C -2°F / -19°C 52% 30.06 in
(1018 mb)
Calm - 25SM
09:55
Clear
9°F / -13°C -4°F / -20°C 56% 30.06 in
(1018 mb)
Calm - 25SM
08:55
Clear
°F / -18°C -8°F / -22°C 71% 30.09 in
(1019 mb)
Calm - 25SM
07:55
Clear
-6°F / -21°C -9°F / -23°C 84% 30.09 in
(1019 mb)
Calm - 25SM
06:55
Clear
-9°F / -23°C -15°F / -26°C 77% 30.09 in
(1019 mb)
Calm - 25SM
05:55
Clear
-13°F / -25°C -18°F / -28°C 76% 30.09 in
(1019 mb)
Calm - 25SM
04:55
Clear
-11°F / -24°C -17°F / -27°C 76% 30.09 in
(1019 mb)
Calm - 13SM
03:55
Clear
-8°F / -22°C -11°F / -24°C 84% 30.09 in
(1019 mb)
E 4.6 mph
(E 7 kph)
- 13SM
02:55
Clear
-4°F / -20°C -9°F / -23°C 77% 30.09 in
(1019 mb)
E 5.8 mph
(E 9 kph)
- 10SM
01:55
Clear
°F / -18°C -8°F / -22°C 71% 30.09 in
(1019 mb)
ENE 4.6 mph
(ENE 7 kph)
- 10SM
00:55
Clear
°F / -18°C -9°F / -23°C 65% 30.06 in
(1018 mb)
E 5.8 mph
(E 9 kph)
- 10SM
Time Weather Temperature Dewpoint Humidity Pressure Winds Precip Visibility


Weather for websites

WeatherForYou.com, LLC is not responsible for any damages or problems caused by this service. Current weather conditions are obtained from the closest station including government and personal stations which may have varying degrees of accuracy. Weather forecasts are derived from the NOAA NDFD. Like all things, this site belongs to Jesus Christ... He just trusts me to maintain it. If you have any questions or comments email webmaster@weatherforyou.com

Copyright © 2014, WeatherForYou.com LLC. All rights reserved.